Retour au catalogue

HAWK-5C

ActifSciencePO
NORAD 52754·PAYLOAD·🇺🇸 United States

Lancé May 25, 2022 depuis Cape Canaveral Space Force Station

Loading…

Prochains Passages (prochaines 24 heures)

TLE

FraisSource: Space-Track

Époque: Sep 14, 2026, 22:30 UTC

1 52754U 22057Y   26257.93801385  .00019090  00000-0  29360-3 0  9990
2 52754  97.6681  63.6492 0004826 101.1640 259.0156 15.54274412240273

Suivez HAWK-5C en temps réel avec AllMySat

Download on the App Store